Flag for U.S.A. Weather past 2 weeks in Amarillo, Texas, U.S.A.

Now
73 °F

Clear.


Feels Like: 76 °F
Forecast: 68 / 90 °F
Wind: 14 mph from South

Location: Amarillo International Airport

Current Time: Sep 5, 2015 at 3:42:33 AM

Latest Report: Sep 5, 2015 at 2:53 AM


Visibility: 10 mi

Pressure: 29.84 "Hg (26.23 "Hg at 1117m altitude)

Humidity: 59%

Dew point: 58 °F

Location of AmarilloLocation

Historic Weather in Amarillo — Graph

°F

Amarillo temperature yesterday

Maximum temperature yesterday: 92 °F (at 3:53 PM)
Minimum temperature yesterday: 71 °F (at 6:53 AM)
Average temperature yesterday: 81 °F

Past Weeks' High & Low Weather Summary

 TemperatureHumidityPressure
High94 °F (Aug 22, 3:53 PM)97% (Aug 21, 8:56 AM)30.19 "Hg (Aug 21, 8:56 AM)
Low56 °F (Aug 24, 6:53 AM)26% (Aug 31, 3:53 PM)29.71 "Hg (Aug 22, 4:53 PM)
Average76 °F55%29.93 "Hg
* Reported Aug 21 1:53 AM — Sep 5 1:53 AM, Amarillo, Weather by CustomWeather, © 2015

Note: Actual official high and low records may vary slightly from our data, if they occured in-between our weather recording intervals... More about our weather records

Advertising

Amarillo weather history for previous 24 hours

 ConditionsComfort  
Time TempWeatherWind HumidityBarometerVisibility
1:53 AM
Sat, Sep 5
74 °FClear.13 mph53%29.85 "Hg10 mi
12:53 AM75 °FClear.13 mph50%29.85 "Hg10 mi
11:53 PM
Fri, Sep 4
76 °FClear.13 mph50%29.84 "Hg10 mi
10:53 PM75 °FClear.12 mph52%29.85 "Hg10 mi
9:53 PM77 °FClear.13 mph48%29.84 "Hg10 mi
8:53 PM81 °FSunny.12 mph42%29.82 "Hg10 mi
7:53 PM85 °FSunny.13 mph37%29.81 "Hg10 mi
6:53 PM88 °FSunny.14 mph31%29.80 "Hg10 mi
5:53 PM90 °FSunny.16 mph28%29.78 "Hg10 mi
4:53 PM91 °FSunny.16 mph30%29.78 "Hg10 mi
3:53 PM92 °FSunny.20 mph30%29.79 "Hg10 mi
2:53 PM91 °FPartly sunny.17 mph30%29.81 "Hg10 mi
1:53 PM88 °FPassing clouds.14 mph31%29.82 "Hg10 mi
12:53 PM88 °FSunny.10 mph35%29.83 "Hg10 mi
11:53 AM87 °FOvercast.15 mph36%29.84 "Hg10 mi
10:53 AM82 °FSunny.16 mph43%29.84 "Hg10 mi
9:53 AM78 °FSunny.13 mph46%29.84 "Hg10 mi
8:53 AM75 °FSunny.14 mph52%29.83 "Hg10 mi
7:53 AM71 °FPassing clouds.12 mph57%29.82 "Hg10 mi
6:53 AM71 °FPassing clouds.13 mph57%29.80 "Hg10 mi
5:53 AM72 °FPassing clouds.15 mph55%29.78 "Hg10 mi
4:53 AM74 °FPassing clouds.15 mph52%29.78 "Hg10 mi
3:53 AM76 °FClear.16 mph47%29.78 "Hg10 mi
Weather by CustomWeather, © 2015

See weather overviewHow to use our weather pages